Location: Unspecified
(0.0000°N, 0.0000°E)
Time: 01:01:31
(UTC+00:00)

S-56A Canister/Altair - Pass Details

Date: 22 December 2018
Orbit: 633 x 2500 km, 38.9° (Epoch: 18 January)

Event Time Altitude Azimuth Distance (km) Brightness Sun altitude
Rises 22:46:20 0° 272° (W) 2,976 - -60.7°
Reaches altitude 10° 22:49:47 10° 301° (WNW) 2,207 - -61.2°
Maximum altitude 22:52:08 13° 329° (NNW) 2,128 - -61.5°
Drops below altitude 10° 22:54:47 10° 357° (N) 2,525 - -61.9°
Sets 22:59:23 0° 23° (NNE) 3,846 - -62.5°
